FW4072 Weather Reports


time (UTC)temp
C
wind
direction
speed
KPH
gust
KPH
rain 1hr
cm
rain 24hr
cm
rain mn
cm
humidity
%
barometer
mb
20260503225018 7 0.0 0.0 0.00 0.00 0.00 60 1016.6
20260503224117 8 0.0 1.6 0.00 0.00 0.00 59 1016.5
20260503223208 8 0.0 0.0 0.00 0.00 0.00 57 1016.5
20260503222246 8 0.0 1.6 0.00 0.00 0.00 56 1016.7
20260503221345 8 0.0 0.0 0.00 0.00 0.00 55 1016.6
20260503220444 9 0.0 1.6 0.00 0.00 0.00 53 1016.6
20260503215543 9 0.0 1.6 0.00 0.00 0.00 52 1016.6
20260503214643 10 0.0 3.2 0.00 0.00 0.00 50 1016.7
20260503213742 10 0.0 0.0 0.00 0.00 0.00 48 1016.6
20260503212842 11 0.0 0.0 0.00 0.00 0.00 46 1016.7
20260503211041 11 0.0 1.6 0.00 0.00 0.00 44 1016.8
20260503210140 11 0.0 3.2 0.00 0.00 0.00 44 1016.9
20260503205300 11 0.0 0.0 0.00 0.00 0.00 43 1017.1
20260503204339 11 0.0 0.0 0.00 0.00 0.00 42 1017.3
20260503203521 11 0.0 1.6 0.00 0.00 0.00 42 1017.3
20260503202537 11 0.0 1.6 0.00 0.00 0.00 43 1017.2
20260503201637 11 0.0 1.6 0.00 0.00 0.00 45 1017.2
20260503200758 11 0.0 0.0 0.00 0.00 0.00 44 1017.4
20260503195836 11 0.0 0.0 0.00 0.00 0.00 43 1017.5
20260503194035 11 158 1.6 3.2 0.00 0.00 0.00 43 1017.7
20260503193134 11 0.0 0.0 0.00 0.00 0.00 43 1017.7
20260503192233 11 0.0 0.0 0.00 0.00 0.00 43 1017.9
20260503191334 11 0.0 0.0 0.00 0.00 0.00 42 1017.9
20260503190432 11 0.0 0.0 0.00 0.00 0.00 41 1017.8
20260503185533 11 0.0 0.0 0.00 0.00 0.00 40 1018.0
20260503184632 11 0.0 0.0 0.00 0.00 0.00 38 1017.9
20260503183730 11 0.0 0.0 0.00 0.00 0.00 37 1017.9
20260503182831 12 0.0 0.0 0.00 0.00 0.00 34 1017.8
20260503181028 12 135 1.6 3.2 0.00 0.00 0.00 33 1017.8
20260503180128 12 135 1.6 3.2 0.00 0.00 0.00 31 1017.8
20260503175229 12 0.0 1.6 0.00 0.00 0.00 29 1017.7
20260503174326 13 0.0 1.6 0.00 0.00 0.00 27 1017.6
20260503173426 13 0.0 3.2 0.00 0.00 0.00 26 1017.5
20260503172525 13 0.0 1.6 0.00 0.00 0.00 25 1017.6
20260503171624 13 0.0 3.2 0.00 0.00 0.00 23 1017.5
20260503170724 14 0.0 1.6 0.00 0.00 0.00 21 1017.5
20260503131237 20 0.0 3.2 0.00 0.00 0.00 1019.3
20260503130337 20 113 1.6 3.2 0.00 0.00 0.00 1019.5
20260503110629 20 135 1.6 3.2 0.00 0.00 0.00 1020.7
20260503081517 17 135 1.6 6.4 0.00 0.00 0.00 1022.5
20260503080616 18 1.6 4.8 0.00 0.00 0.00 1022.5
20260503072133 16 135 1.6 3.2 0.00 0.00 0.00 13 1022.5
20260503071213 16 113 1.6 3.2 0.00 0.00 0.00 19 1022.5
20260503070312 15 158 1.6 4.8 0.00 0.00 0.00 16 1022.5
20260503055127 10 113 1.6 3.2 0.00 0.00 0.00 49 1022.6
20260503054206 9 135 1.6 3.2 0.00 0.00 0.00 52 1022.6
20260503053307 8 0.0 3.2 0.00 0.00 0.00 55 1022.6
20260503052406 7 0.0 3.2 0.00 0.00 0.00 59 1022.7
20260503051504 6 0.0 3.2 0.00 0.00 0.00 61 1022.8
20260503050604 6 0.0 3.2 0.00 0.00 0.00 63 1022.6
20260503045743 5 135 1.6 3.2 0.00 0.00 0.00 67 1022.7
20260503044822 4 0.0 3.2 0.00 0.00 0.00 71 1022.5
20260503043902 2 113 1.6 3.2 0.00 0.00 0.00 75 1022.5
20260503042100 2 0.0 3.2 0.00 0.00 0.00 77 1022.5
20260503041200 2 0.0 3.2 0.00 0.00 0.00 77 1022.7
20260503040259 1 0.0 3.2 0.00 0.00 0.00 77 1022.5
20260503035418 1 0.0 3.2 0.00 0.00 0.00 77 1022.5
20260503034458 1 0.0 1.6 0.00 0.00 0.00 77 1022.4
20260503033557 1 0.0 3.2 0.00 0.00 0.00 78 1022.5
20260503032656 0 1.6 3.2 0.00 0.00 0.00 78 1022.5
20260503031756 0 0.0 3.2 0.00 0.00 0.00 78 1022.5
20260503030855 0 0.0 1.6 0.00 0.00 0.00 77 1022.3
20260503025054 0 0.0 0.0 0.00 0.00 0.00 76 1022.2
20260503024154 0 0.0 0.0 0.00 0.00 0.00 76 1022.4
20260503023315 0 0.0 0.0 0.00 0.00 0.00 76 1022.3
20260503022352 0 0.0 1.6 0.00 0.00 0.00 76 1022.3
20260503021452 0 0.0 0.0 0.00 0.00 0.00 76 1022.3
20260503020612 0 0.0 0.0 0.00 0.00 0.00 75 1022.2
20260503015650 0 0.0 0.0 0.00 0.00 0.00 74 1022.3
20260503014810 0 0.0 0.0 0.00 0.00 0.00 74 1022.5
20260503013849 1 0.0 0.0 0.00 0.00 0.00 74 1022.5
20260503012048 1 0.0 1.6 0.00 0.00 0.00 75 1022.5
20260503011147 0 0.0 0.0 0.00 0.00 0.00 74 1022.4
20260503010246 0 0.0 0.0 0.00 0.00 0.00 73 1022.4
20260503005347 1 0.0 0.0 0.00 0.00 0.00 73 1022.3
20260503004445 1 0.0 0.0 0.00 0.00 0.00 72 1022.4
20260503003544 1 0.0 0.0 0.00 0.00 0.00 72 1022.4
20260503002704 1 0.0 0.0 0.00 0.00 0.00 72 1022.4
20260503001743 1 0.0 1.6 0.00 0.00 0.00 71 1022.4
20260503000842 1 0.0 1.6 0.00 0.00 0.00 71 1022.5
20260502235042 1 0.0 0.0 0.00 0.00 0.00 71 1022.6
20260502234201 1 0.0 0.0 0.00 0.00 0.00 70 1022.6
20260502233240 1 0.0 0.0 0.00 0.00 0.00 69 1022.7
20260502232340 1 0.0 0.0 0.00 0.00 0.00 69 1022.8
20260502231439 1 0.0 0.0 0.00 0.00 0.00 68 1022.8
20260502230538 2 0.0 0.0 0.00 0.00 0.00 67 1022.9